Location: Ellerstadt
(49.4644°N, 8.2615°E)
Time: 21:02:44
(UTC+00:00)

Vanguard 1 - Pass Details

Date: 19 June 2021
Orbit: 651 x 3832 km, 34.2° (Epoch: 27 July)

Event Time Altitude Azimuth Distance (km) Brightness Sun altitude
Rises 19:24:37 0° 214° (SW) 7,803 14.6 0.7°
Reaches altitude 10° 19:30:42 10° 206° (SSW) 6,906 14.3 -0.1°
Maximum altitude 19:49:42 34° 153° (SSE) 4,830 13.1 -2.4°
Drops below altitude 10° 20:04:38 10° 97° (E) 5,506 13.4 -4.2°
Sets 20:08:43 0° 89° (E) 6,119 13.7 -4.7°
